Content
SEND FEEDBACK

Daily
Averages
Monthly
Summary
United States of America

MIDLAND, MICHIGAN


Home > North America > United States > Michigan
Elevation: 628 feet     Latitude: 43 39N     Longitude: 084 15W

WEATHER
 
SELECT A DAY
Number of Records: 107,759;   Date Range: 1/13/10 - 8/27/14
 
SHARE

PRINT THIS DATA

[ ← Previous Day ]
WEATHER ALMANAC - MAY 6, 2013
[ Next Day → ]
[ °C ]   °F
Weather ElementAverageHighLow
Temperature59.6 °F75.7 °F (3:33 pm)40.5 °F (6:33 am)
Dewpoint40.6 °F47.8 °F (8:13 am)33.3 °F (5:54 pm)
Humidity57.9 %99 % (5:54 am)23 % (4:14 pm)
Barometer30.05 in30.09 in (8:34 am)29.99 in (5:54 pm)
Wind Speed4.6 mph15 mph (2:33 pm)
Wind Gust19.6 mph (2:33 pm)
Weather ElementAverage
Visibility10 mi
Wind DirectionNE (42 °)

Weather ElementTotal
Precipitation---
Heating Degree Days6.9 (Base 65)
Growing Degree Days8.1 (Base 50)
Averaged from 69 records on May 6, 2013
WEATHER CONDITIONS BREAKOUT
WIND DIRECTION BREAKOUT
WEATHER BY HOUR - MAY 6, 2013
[ °C ]   °F
Local TimeTemperatureDewpointHumidityBarometerVisibilityWind DirectionWind SpeedGust SpeedPrecipitationEventsConditions
12:33 AM50.7 °F46.2 °F85 %30.07 in10.0 miCalmClear
12:53 AM48.7 °F46.9 °F93 %30.07 in10.0 miCalmClear
1:13 AM48.2 °F46.4 °F93 %30.07 in10.0 miCalmClear
1:33 AM47.5 °F45.7 °F93 %30.07 in10.0 miCalmClear
1:53 AM46.0 °F44.8 °F95 %30.07 in10.0 miCalmClear
2:33 AM45.1 °F44.4 °F97 %30.06 in10.0 miCalmClear
2:53 AM45.5 °F45.0 °F98 %30.06 in10.0 miCalmClear
3:13 AM44.2 °F43.7 °F98 %30.06 in10.0 miCalmClear
3:33 AM44.6 °F43.7 °F97 %30.05 in10.0 miCalmClear
3:53 AM43.7 °F43.0 °F97 %30.05 in10.0 miCalmClear
4:13 AM43.5 °F42.8 °F97 %30.05 in10.0 miCalmClear
4:33 AM42.8 °F42.1 °F97 %30.05 in10.0 miCalmClear
4:53 AM42.8 °F42.1 °F97 %30.05 in10.0 miCalmClear
5:13 AM41.9 °F41.2 °F97 %30.05 in10.0 miCalmClear
5:33 AM41.9 °F41.4 °F98 %30.05 in10.0 miCalmClear
5:54 AM41.4 °F41.0 °F99 %30.05 in10.0 miCalmClear
6:13 AM41.0 °F40.3 °F97 %30.06 in10.0 miCalmClear
6:33 AM40.5 °F40.1 °F99 %30.06 in10.0 miCalmClear
6:54 AM40.8 °F40.3 °F98 %30.06 in10.0 miCalmClear
7:13 AM41.9 °F41.4 °F98 %30.07 in10.0 miCalmClear
7:33 AM45.0 °F44.1 °F97 %30.08 in10.0 miCalmClear
7:53 AM49.6 °F46.2 °F88 %30.08 in10.0 miCalmClear
8:13 AM53.4 °F47.8 °F81 %30.08 in10.0 miENE (70°)4.6 mphClear
8:34 AM55.9 °F47.8 °F74 %30.09 in10.0 miENE (60°)4.6 mphClear
8:53 AM57.6 °F47.5 °F69 %30.09 in10.0 miNE (40°)5.8 mphClear
9:08 AM59.0 °F47.8 °F66 %30.09 in10.0 miNE (50°)4.6 mphClear
9:33 AM61.3 °F47.5 °F60 %30.09 in10.0 miEast (100°)3.5 mphClear
9:54 AM63.3 °F46.8 °F55 %30.09 in10.0 miCalmClear
10:13 AM64.2 °F44.4 °F49 %30.09 in10.0 miEast (80°)3.5 mphClear
10:33 AM65.7 °F44.8 °F47 %30.08 in10.0 miEast (100°)4.6 mphClear
10:54 AM67.5 °F44.8 °F44 %30.08 in10.0 miESE (110°)3.5 mphClear
11:13 AM68.9 °F45.5 °F43 %30.07 in10.0 miESE (110°)4.6 mphClear
11:34 AM69.6 °F44.4 °F40 %30.07 in10.0 miEast (100°)6.9 mphClear
11:53 AM71.6 °F44.8 °F38 %30.07 in10.0 miEast (100°)5.8 mphClear
12:13 PM72.0 °F42.1 °F34 %30.07 in10.0 miEast (90°)11.5 mphClear
12:34 PM73.0 °F40.5 °F31 %30.06 in10.0 miEast (90°)11.5 mphClear
12:53 PM73.0 °F38.5 °F29 %30.06 in10.0 miEast (90°)9.2 mphClear
1:13 PM73.9 °F37.9 °F27 %30.06 in10.0 miEast (80°)12.7 mphClear
1:34 PM72.7 °F37.4 °F28 %30.05 in10.0 miEast (90°)11.5 mphClear
1:53 PM74.1 °F37.2 °F26 %30.05 in10.0 miENE (60°)12.7 mph18.4 mphClear
2:14 PM73.6 °F36.5 °F26 %30.05 in10.0 miEast (90°)10.4 mph18.4 mphClear
2:33 PM74.3 °F36.9 °F26 %30.04 in10.0 miEast (80°)15.0 mph19.6 mphClear
2:53 PM74.3 °F37.6 °F26 %30.04 in10.0 miENE (70°)10.4 mphClear
3:14 PM75.6 °F37.9 °F26 %30.03 in10.0 miEast (90°)11.5 mph17.3 mphClear
3:33 PM75.7 °F36.0 °F24 %30.02 in10.0 miENE (70°)11.5 mphClear
3:53 PM75.4 °F36.5 °F24 %30.02 in10.0 miENE (60°)12.7 mph18.4 mphClear
4:14 PM75.7 °F35.2 °F23 %30.01 in10.0 miENE (70°)11.5 mph16.1 mphClear
4:33 PM75.2 °F36.7 °F25 %30.01 in10.0 miENE (60°)10.4 mph18.4 mphClear
4:53 PM74.3 °F35.6 °F24 %30.00 in10.0 miENE (70°)11.5 mphClear
5:14 PM75.2 °F35.4 °F24 %30.00 in10.0 miEast (80°)13.8 mphClear
5:33 PM73.8 °F34.2 °F24 %30.00 in10.0 miENE (70°)10.4 mphClear
5:54 PM73.6 °F33.3 °F23 %29.99 in10.0 miENE (70°)11.5 mph16.1 mphClear
6:14 PM72.0 °F35.2 °F26 %30.00 in10.0 miENE (70°)8.1 mphClear
6:53 PM71.4 °F33.4 °F25 %29.99 in10.0 miNE (50°)8.1 mphClear
7:13 PM70.3 °F33.4 °F26 %30.00 in10.0 miNE (50°)9.2 mphClear
7:34 PM68.9 °F34.7 °F28 %30.00 in10.0 miENE (60°)6.9 mphClear
7:53 PM67.8 °F33.8 °F28 %30.00 in10.0 miNE (50°)3.5 mphClear
8:13 PM66.6 °F33.4 °F29 %30.01 in10.0 miNE (50°)3.5 mphClear
8:33 PM64.6 °F34.5 °F33 %30.01 in10.0 miENE (60°)3.5 mphClear
8:53 PM63.5 °F34.3 °F34 %30.01 in10.0 miNE (40°)3.5 mphClear
9:14 PM60.1 °F37.4 °F43 %30.02 in10.0 miNE (50°)3.5 mphClear
9:33 PM58.3 °F36.9 °F45 %30.02 in10.0 miENE (70°)3.5 mphClear
9:53 PM58.5 °F37.2 °F45 %30.02 in10.0 miNE (50°)4.6 mphClear
10:13 PM54.5 °F39.6 °F57 %30.03 in10.0 miCalmClear
10:33 PM54.3 °F39.4 °F57 %30.03 in10.0 miCalmClear
10:54 PM52.0 °F41.5 °F68 %30.03 in10.0 miCalmClear
11:13 PM52.7 °F41.4 °F65 %30.03 in10.0 miCalmClear
11:34 PM52.7 °F41.9 °F67 %30.03 in10.0 miCalmClear
11:54 PM51.1 °F42.4 °F72 %30.03 in10.0 miCalmClear
Hourly data recorded from KIKW, located miles away from Midland, Michigan







STORIES FROM OUR PARTNERS